Weather Roundup
Issued by NWS Chicago, IL

Home | Current Version | Previous Version | Text Only | Print | Product List | Glossary Off
Versions: 1 2 3 4 5 6 7 8 9 10 11 12 13 14 15 16 17 18 19 20 21 22 23 24 25 26 27 28 29 30 31 32 33 34 35 36 37 38 39 40 41 42 43 44 45 46 47 48 49 50

000
NZUS59 KLOT 300208
HRRLOT

CHICAGO AREA WEATHER ROUNDUP
NATIONAL WEATHER SERVICE CHICAGO/ROMEOVILLE IL
900 PM CDT SAT AUG 29 2015

NOTE: "FAIR" INDICATES FEW OR NO CLOUDS BELOW 12,000 FEET WITH NO
SIGNIFICANT WEATHER AND/OR OBSTRUCTIONS TO VISIBILITY.

* THESE STATIONS ARE NOT UNDER NWS QUALITY CONTROL. THEY ALSO MAY NOT
  REPORT WEATHER SUCH AS PRECIPITATION OR FOG.

ILZ005-006-012>014-019>023-300300-
NORTHEAST ILLINOIS

CITY           SKY/WX    TMP DP  RH WIND       PRES   REMARKS
OHARE          LGT RAIN  67  65  93 N7        30.03R FOG
MIDWAY         LGT RAIN  70  66  87 N7        30.02R FOG
AURORA         CLOUDY    69  66  90 N3        30.04R FOG
LANSING*       CLOUDY    69  66  88 N6        30.02R
JOLIET*        RAIN      70  69  95 CALM      30.02S
WAUKEGAN       CLOUDY    64  63  96 NW6       30.03R FOG
DUPAGE AIRPORT CLOUDY    67  65  93 NE5       30.03R FOG
WHEELING       CLOUDY    67  65  93 CALM      30.04R FOG
KANKAKEE*      CLOUDY    71  70  98 CALM      30.02R FOG
MORRIS*        CLOUDY    69  67  94 CALM      30.02R FOG
LEWIS AIRPORT* DRIZZLE   68  67  97 N3        30.03R
NORTHERLY IS     N/A     63  61  93 MISG        N/A
$$

WIZ051-052-058>065-066-070>072-300300-
SOUTHEAST WISCONSIN

CITY           SKY/WX    TMP DP  RH WIND       PRES   REMARKS
MILWAUKEE      DRZL/FOG  62  61  96 N7        30.04S VSB 1/2
KENOSHA*       FOG       63  62  97 N5        30.04R VSB 1/2
RACINE*        CLOUDY    62  60  93 N9        30.06R FOG
BURLINGTON     CLOUDY    61  61  99 N5        30.05R FOG
WAUKESHA       CLOUDY    61  61 100 N3        30.06S FOG
WEST BEND      CLOUDY    63  59  88 CALM      30.07R
$$

INZ001>003-010>013-019-020-300300-
NORTHWEST INDIANA

CITY           SKY/WX    TMP DP  RH WIND       PRES   REMARKS
GARY*          CLOUDY    72  66  83 NW7       30.02R FOG
MICHIGAN CITY* NOT AVBL
RENSSELAER*    NOT AVBL
VALPARAISO     MOCLDY    69  67  93 CALM      30.04R FOG
$$

LMZ740>746-300300-
SOUTHERN LAKE MICHIGAN

STATION/POSITION TIME  SKY/WX   TEMP WIND        PRES    VSBY
                                AIR  DIR/SP/G
                 (UTC)          (F)  (DEG/KT/KT) (MB)    (MI)
HARRISON CRIB    0100            62  350/  7/  9   N/A
BURNHAM HARBOR   0200            64  360/  7/  8   N/A
CALUMET HARBOR   NOT AVBL
BURNS HARBOR     0100            71  200/  2/  5 1016.3S
MICHIGAN CITY    0100            70   70/  2/  3   N/A
$$

ABBREVIATIONS USED IN REMARKS
   TC - TEMPERATURE IN CELSIUS
  WCI - WIND CHILL INDEX
   HX - HEAT INDEX
  VSB - VISIBILITY
$$


USA.gov is the U.S. government's official web portal to all federal, state and local government web resources and services.